Flag for United Arab Emirates Weather past 2 weeks in Fujairah, Fujairah, United Arab Emirates

Now
93 °F

Clear.


Feels Like: 121 °F
Forecast: 87 / 101 °F
Wind: 5 mph from East

Location: Fujairah

Current Time: Aug 2, 2015 at 9:14:44 AM

Latest Report: Aug 2, 2015 at 8:00 AM


Visibility: 4 mi

Pressure: 29.62 "Hg

Humidity: 75%

Dew point: 84 °F

Historic Weather in Fujairah — Graph

°F

Fujairah temperature yesterday

Maximum temperature yesterday: 99 °F (at 12:00 PM)
Minimum temperature yesterday: 90 °F (at 3:00 AM)
Average temperature yesterday: 94 °F

Past Weeks' High & Low Weather Summary

 TemperatureHumidityPressure
High113 °F (Jul 29, 12:00 PM)94% (Jul 26, 5:00 AM)32.46 "Hg (Jul 26, 5:00 AM)
Low88 °F (Jul 20, 3:00 AM)15% (Jul 30, 11:00 AM)29.33 "Hg (Jul 18, 5:00 PM)
Average94 °F72%29.54 "Hg
* Reported Jul 18 8:00 AM — Aug 2 8:00 AM, Fujairah, Weather by CustomWeather, © 2015

Note: Actual official high and low records may vary slightly from our data, if they occured in-between our weather recording intervals... More about our weather records

Advertising

Fujairah weather history for previous 24 hours

 ConditionsComfort  
Time TempWeatherWind HumidityBarometerVisibility
8:00 AM
Sun, Aug 2
93 °FClear.5 mph80%29.62 "Hg4 mi
7:00 AM91 °FClear.1 mphN/A29.59 "Hg4 mi
6:00 AM90 °FHaze.2 mph79%29.59 "Hg3 mi
5:00 AM90 °FClear.2 mph84%29.56 "Hg4 mi
4:00 AM91 °FClear.1 mph80%29.56 "Hg4 mi
3:00 AM91 °FClear.2 mph80%29.56 "Hg4 mi
2:00 AM91 °FClear.7 mph75%29.56 "Hg4 mi
1:00 AM93 °FClear.6 mph63%29.56 "Hg4 mi
12:00 AM93 °FClear.2 mph59%29.56 "Hg4 mi
11:00 PM
Sat, Aug 1
95 °FClear.2 mph56%29.59 "Hg4 mi
10:00 PM95 °FClear.1 mph53%29.59 "Hg4 mi
9:00 PM95 °FClear.3 mph60%29.56 "Hg4 mi
8:00 PM93 °FClear.3 mph71%29.56 "Hg4 mi
7:00 PM95 °FClear.2 mph63%29.53 "Hg4 mi
6:00 PM95 °FClear.6 mph71%29.53 "Hg4 mi
5:00 PM97 °FPassing clouds.7 mph63%29.53 "Hg4 mi
4:00 PM97 °FScattered clouds.6 mph63%29.53 "Hg4 mi
3:00 PM99 °FScattered clouds.7 mph53%29.53 "Hg4 mi
2:00 PM99 °FPassing clouds.10 mph60%29.53 "Hg4 mi
1:00 PM99 °FClear.15 mph53%29.56 "Hg4 mi
12:00 PM99 °FClear.9 mph53%29.56 "Hg4 mi
11:00 AM95 °FPassing clouds.12 mph80%29.59 "Hg4 mi
10:00 AM95 °FClear.9 mph71%29.56 "Hg4 mi
9:00 AM93 °FClear.7 mph71%29.56 "Hg4 mi
Weather by CustomWeather, © 2015

See weather overviewHow to use our weather pages